Weather History for KIMT - March, 2013

Change the Weather History Date:

Sunday, March 10, 2013

  Actual Average Record
Temperature  
Mean Temperature 33 °F -  
Max Temperature 36 °F 35 °F 59 °F (2015)
Min Temperature 30 °F 14 °F -15 °F (1972)
Degree Days  
Heating Degree Days 32    
Moisture  
Dew Point 31 °F    
Average Humidity 92    
Maximum Humidity 100    
Minimum Humidity 75    
Precipitation  
Precipitation 0.11 in - - ()
Sea Level Pressure  
Sea Level Pressure 29.82 in    
Wind  
Wind Speed 5 mph (North)    
Max Wind Speed 14 mph    
Max Gust Speed 22 mph    
Visibility 4 miles    
Events Fog , Rain , Snow    
Averages and records for this station are not official NWS values.
T = Trace of Precipitation, MM = Missing Value Source: NWS Daily Summary

Daily Weather History Graph

Daily Weather History Graph

Search for Another Location

Airport or City:

Trip Planner

Search our weather history database for the weather conditions in past years. The results will help you decide how hot, cold, wet, or windy it might be!

Date:

Astronomy

Mar. 10, 2013 Rise Set
Actual Time 7:14 AM CDT 6:51 PM CDT
Civil Twilight 6:44 AM CDT 7:21 PM CDT
Nautical Twilight 6:09 AM CDT 7:56 PM CDT
Astronomical Twilight 5:34 AM CDT 8:31 PM CDT
Moon 6:15 AM CDT (3/10) 5:59 PM CDT (3/10)
Length of Visible Light 12h 37m
Length of Day
11h 37m
Waning Crescent, 2% of the Moon is Illuminated
Mar 10
Waning Crescent
Mar 11
New
Mar 19
First Quarter
Mar 27
Full
Apr 2
Last Quarter

Hourly Weather History & Observations

Time (CDT) Temp. Windchill Dew Point Humidity Pressure Visibility Wind Dir Wind Speed Gust Speed Precip Events Conditions
12:05 AM 33.8 °F 27.0 °F 33.8 °F 100% 29.79 in 2.5 mi South 8.1 mph - N/A   Overcast
12:40 AM 33.8 °F 28.6 °F 33.8 °F 100% 29.77 in 3.0 mi South 5.8 mph - 0.00 in   Overcast
12:54 AM 34.0 °F 28.0 °F 33.1 °F 96% 29.81 in 4.0 mi SSE 6.9 mph - 0.00 in   Overcast
1:54 AM 34.0 °F - 33.1 °F 96% 29.78 in 3.0 mi Calm Calm - N/A   Overcast
3:22 AM 33.8 °F 30.8 °F 33.8 °F 100% 29.74 in 2.5 mi South 3.5 mph - N/A   Overcast
3:48 AM 33.8 °F - 33.8 °F 100% 29.73 in 1.5 mi Calm Calm - 0.00 in Rain Light Rain
3:49 AM 33.1 °F - 33.1 °F 100% 29.78 in 1.2 mi Calm Calm - 0.00 in Rain Light Rain
4:31 AM 33.8 °F - 33.8 °F 100% 29.74 in 0.8 mi Calm Calm - 0.00 in   Overcast
4:54 AM 33.1 °F - 33.1 °F 100% 29.78 in 1.0 mi Calm Calm - 0.00 in Rain Light Rain
5:24 AM 33.8 °F - 32.0 °F 93% 29.75 in 1.2 mi Calm Calm - 0.00 in   Overcast
5:45 AM 33.8 °F - 32.0 °F 93% 29.75 in 0.5 mi Calm Calm - 0.00 in Fog Fog
5:54 AM 33.1 °F - 33.1 °F 100% 29.80 in 1.0 mi Calm Calm - 0.00 in   Overcast
6:38 AM 33.8 °F - 33.8 °F 100% 29.75 in 0.8 mi Calm Calm - N/A   Overcast
7:02 AM 33.8 °F - 32.0 °F 93% 29.75 in 0.8 mi Calm Calm - N/A   Overcast
7:13 AM 33.8 °F - 32.0 °F 93% 29.75 in 1.5 mi Calm Calm - N/A   Overcast
7:23 AM 33.8 °F 30.8 °F 32.0 °F 93% 29.74 in 2.5 mi ENE 3.5 mph - N/A   Overcast
7:35 AM 33.8 °F - 33.8 °F 100% 29.76 in 3.0 mi Calm Calm - N/A   Overcast
7:44 AM 33.8 °F 30.8 °F 32.0 °F 93% 29.75 in 1.8 mi NNW 3.5 mph - N/A   Overcast
7:54 AM 33.1 °F - 32.0 °F 96% 29.80 in 1.2 mi Calm Calm - N/A   Overcast
8:30 AM 33.8 °F - 32.0 °F 93% 29.77 in 2.0 mi Calm Calm - N/A   Overcast
8:37 AM 33.8 °F 30.8 °F 32.0 °F 93% 29.77 in 1.8 mi NW 3.5 mph - N/A   Overcast
8:45 AM 33.8 °F - 33.8 °F 100% 29.78 in 2.0 mi Calm Calm - N/A   Overcast
8:52 AM 33.8 °F 30.8 °F 33.8 °F 100% 29.78 in 1.8 mi NW 3.5 mph - N/A   Overcast
8:53 AM 33.1 °F 30.0 °F 33.1 °F 100% 29.82 in 1.8 mi NW 3.5 mph - N/A   Overcast
9:00 AM 33.8 °F 29.6 °F 33.8 °F 100% 29.77 in 2.0 mi NNW 4.6 mph - N/A   Overcast
9:21 AM 33.8 °F 28.6 °F 33.8 °F 100% 29.78 in 3.0 mi NW 5.8 mph - N/A   Overcast
9:32 AM 33.8 °F 28.6 °F 33.8 °F 100% 29.79 in 2.5 mi NNW 5.8 mph - 0.01 in Rain Light Rain
9:42 AM 33.8 °F 28.6 °F 33.8 °F 100% 29.80 in 3.0 mi NW 5.8 mph - 0.01 in Rain Light Rain
9:54 AM 35.1 °F 28.6 °F 33.1 °F 92% 29.85 in 4.0 mi NNW 8.1 mph - 0.01 in Rain Light Rain
10:54 AM 35.1 °F 27.4 °F 33.1 °F 92% 29.88 in 10.0 mi NNW 10.4 mph - 0.00 in Rain Light Rain
11:10 AM 35.6 °F 28.6 °F 33.8 °F 93% 29.83 in 10.0 mi NNW 9.2 mph - 0.00 in   Overcast
11:22 AM 35.6 °F 28.6 °F 32.0 °F 87% 29.83 in 10.0 mi NNW 9.2 mph - 0.00 in   Overcast
11:34 AM 35.6 °F 28.6 °F 32.0 °F 87% 29.83 in 10.0 mi NNW 9.2 mph - 0.00 in   Overcast
11:54 AM 35.1 °F 28.6 °F 32.0 °F 89% 29.89 in 10.0 mi NW 8.1 mph - 0.00 in Rain Light Rain
12:47 PM 35.6 °F 28.0 °F 32.0 °F 87% 29.87 in 10.0 mi NNW 10.4 mph - 0.00 in   Overcast
12:54 PM 36.0 °F 29.0 °F 30.9 °F 82% 29.91 in 10.0 mi NNW 9.2 mph - 0.00 in   Overcast
1:54 PM 36.0 °F 27.1 °F 30.9 °F 82% 29.88 in 10.0 mi North 13.8 mph - 0.00 in   Overcast
2:54 PM 36.0 °F 27.5 °F 30.0 °F 79% 29.91 in 10.0 mi NNW 12.7 mph - N/A   Overcast
3:54 PM 35.1 °F 25.9 °F 30.0 °F 82% 29.89 in 10.0 mi North 13.8 mph 20.7 mph 0.00 in   Overcast
4:54 PM 34.0 °F 25.5 °F 28.9 °F 82% 29.90 in 10.0 mi North 11.5 mph 21.9 mph N/A   Overcast
5:54 PM 34.0 °F 26.6 °F 28.0 °F 79% 29.90 in 10.0 mi NNE 9.2 mph - N/A   Overcast
6:31 PM 33.8 °F 25.3 °F 26.6 °F 75% 29.87 in 10.0 mi NNE 11.5 mph - N/A   Overcast
6:54 PM 32.0 °F 24.2 °F 26.1 °F 79% 29.93 in 10.0 mi NNE 9.2 mph 18.4 mph N/A   Overcast
7:54 PM 30.9 °F 21.7 °F 26.1 °F 82% 29.92 in 2.5 mi NNE 11.5 mph - 0.00 in Snow Light Snow
8:12 PM 30.2 °F 21.9 °F 26.6 °F 86% 29.87 in 1.8 mi NNE 9.2 mph - 0.00 in Snow Light Snow
8:35 PM 30.2 °F 20.8 °F 26.6 °F 86% 29.87 in 1.0 mi North 11.5 mph - 0.00 in Snow Light Snow
8:54 PM 30.0 °F 20.5 °F 27.0 °F 88% 29.91 in 1.0 mi North 11.5 mph - 0.01 in Snow Light Snow
8:58 PM 30.2 °F 21.3 °F 26.6 °F 86% 29.86 in 0.8 mi NNE 10.4 mph - 0.00 in Snow Light Snow
9:22 PM 30.2 °F 22.6 °F 28.4 °F 93% 29.85 in 0.8 mi NNE 8.1 mph - 0.01 in Snow Light Snow
9:54 PM 30.0 °F 21.7 °F 28.0 °F 92% 29.88 in 1.0 mi NNE 9.2 mph - 0.02 in Snow Light Snow
10:22 PM 30.2 °F 21.3 °F 28.4 °F 93% 29.81 in 1.0 mi North 10.4 mph - 0.01 in Snow Light Snow
10:54 PM 30.0 °F 21.1 °F 28.0 °F 92% 29.84 in 1.5 mi North 10.4 mph - 0.03 in Snow Light Snow
11:15 PM 30.2 °F 22.6 °F 28.4 °F 93% 29.79 in 0.8 mi NNE 8.1 mph - 0.00 in Snow Light Snow
11:54 PM 30.0 °F 20.0 °F 28.0 °F 92% 29.79 in 0.5 mi North 12.7 mph 19.6 mph 0.02 in Fog , Snow Snow
12:54 AM 30.9 °F 20.7 °F 28.9 °F 92% 29.75 in 0.8 mi North 13.8 mph - 0.02 in Snow Light Snow